�������l�o���
Date,Time,MP-1(��Sv/h),MP-2(��Sv/h),MP-3(��Sv/h),MP-4(��Sv/h),MP-5(��Sv/h),MP-6(��Sv/h),MP-7(��Sv/h),MP-8(��Sv/h),����,����(m/s),���J
2022/06/14,00:00,0.553,0.817,0.518,0.982,0.686,0.338,0.579,0.552,�k,3.5,�L
2022/06/14,00:10,0.554,0.816,0.516,0.986,0.684,0.338,0.579,0.552,�k,3.2,�L
2022/06/14,00:20,0.551,0.814,0.518,0.984,0.685,0.337,0.579,0.551,�k,3.7,�L
2022/06/14,00:30,0.553,0.815,0.517,0.982,0.687,0.338,0.580,0.550,�k�k��,5.0,�L
2022/06/14,00:40,0.553,0.814,0.517,0.984,0.685,0.339,0.579,0.550,�k�k��,4.8,�L
2022/06/14,00:50,0.552,0.812,0.516,0.982,0.685,0.337,0.580,0.550,�k�k��,5.6,�L
2022/06/14,01:00,0.552,0.812,0.515,0.984,0.683,0.337,0.579,0.550,�k�k��,6.1,�L
2022/06/14,01:10,0.551,0.813,0.515,0.983,0.682,0.337,0.578,0.551,�k,5.8,�L
2022/06/14,01:20,0.551,0.810,0.515,0.984,0.681,0.338,0.577,0.549,�k,5.2,�L
2022/06/14,01:30,0.551,0.810,0.513,0.982,0.681,0.337,0.577,0.549,�k,5.4,�L
2022/06/14,01:40,0.550,0.810,0.514,0.984,0.681,0.336,0.575,0.549,�k,5.6,�L
2022/06/14,01:50,0.551,0.807,0.514,0.980,0.680,0.338,0.577,0.550,�k,5.3,�L
2022/06/14,02:00,0.550,0.809,0.514,0.984,0.681,0.336,0.577,0.550,�k,6.0,�L
2022/06/14,02:10,0.550,0.810,0.514,0.983,0.680,0.337,0.576,0.550,�k,5.5,�L
2022/06/14,02:20,0.551,0.811,0.515,0.984,0.682,0.339,0.576,0.551,�k,5.2,�L
2022/06/14,02:30,0.551,0.809,0.514,0.981,0.681,0.337,0.577,0.548,�k,6.0,�L
2022/06/14,02:40,0.549,0.809,0.515,0.981,0.681,0.336,0.577,0.549,�k,5.6,��
2022/06/14,02:50,0.552,0.811,0.516,0.984,0.680,0.337,0.577,0.550,�k,5.4,��
2022/06/14,03:00,0.550,0.811,0.514,0.981,0.682,0.338,0.577,0.551,�k,4.9,��
2022/06/14,03:10,0.549,0.812,0.514,0.983,0.683,0.337,0.577,0.550,�k,5.0,��
2022/06/14,03:20,0.551,0.811,0.515,0.982,0.683,0.337,0.577,0.550,�k,5.6,��
2022/06/14,03:30,0.551,0.809,0.514,0.983,0.682,0.337,0.577,0.551,�k,4.3,��
2022/06/14,03:40,0.549,0.810,0.513,0.981,0.682,0.338,0.576,0.551,�k,5.0,��
2022/06/14,03:50,0.551,0.811,0.514,0.982,0.681,0.337,0.577,0.552,�k,4.4,��
2022/06/14,04:00,0.551,0.810,0.515,0.981,0.684,0.338,0.576,0.551,�k,3.7,��
2022/06/14,04:10,0.551,0.813,0.515,0.983,0.682,0.336,0.578,0.550,�k,3.7,��
2022/06/14,04:20,0.550,0.811,0.515,0.982,0.684,0.338,0.577,0.550,�k,4.4,��
2022/06/14,04:30,0.551,0.810,0.514,0.981,0.683,0.338,0.576,0.552,�k,4.7,��
2022/06/14,04:40,0.552,0.813,0.515,0.982,0.683,0.336,0.578,0.551,�k,5.0,��
2022/06/14,04:50,0.551,0.813,0.515,0.983,0.682,0.338,0.577,0.550,�k,5.2,��
2022/06/14,05:00,0.551,0.811,0.516,0.983,0.683,0.337,0.576,0.551,�k,5.4,��
2022/06/14,05:10,0.551,0.811,0.514,0.983,0.683,0.337,0.577,0.551,�k,4.6,��
2022/06/14,05:20,0.552,0.812,0.515,0.985,0.686,0.337,0.576,0.550,�k,4.8,��
2022/06/14,05:30,0.551,0.810,0.515,0.983,0.684,0.336,0.577,0.550,�k,5.1,��
2022/06/14,05:40,0.552,0.812,0.514,0.984,0.685,0.339,0.578,0.551,�k,4.8,��
2022/06/14,05:50,0.552,0.811,0.514,0.986,0.685,0.336,0.576,0.550,�k,3.2,��
2022/06/14,06:00,0.553,0.812,0.516,0.985,0.685,0.337,0.577,0.550,�k,3.4,��
2022/06/14,06:10,0.552,0.811,0.514,0.984,0.684,0.337,0.578,0.551,�k,4.2,��
2022/06/14,06:20,0.550,0.813,0.514,0.984,0.683,0.338,0.575,0.549,�k,4.2,��
2022/06/14,06:30,0.552,0.812,0.514,0.982,0.683,0.338,0.577,0.550,�k,3.9,��
2022/06/14,06:40,0.552,0.812,0.514,0.984,0.685,0.338,0.577,0.550,�k,3.9,��
2022/06/14,06:50,0.552,0.813,0.515,0.982,0.684,0.338,0.577,0.553,�k�k��,4.3,��
2022/06/14,07:00,0.553,0.813,0.515,0.983,0.683,0.336,0.576,0.551,�k�k��,4.5,��
2022/06/14,07:10,0.553,0.813,0.515,0.986,0.684,0.335,0.577,0.551,�k�k��,5.0,��
2022/06/14,07:20,0.552,0.812,0.517,0.985,0.687,0.336,0.576,0.550,�k�k��,5.2,��
2022/06/14,07:30,0.553,0.812,0.515,0.984,0.685,0.336,0.577,0.552,�k�k��,4.6,��
2022/06/14,07:40,0.552,0.809,0.517,0.985,0.685,0.336,0.577,0.550,�k�k��,4.7,��
2022/06/14,07:50,0.552,0.811,0.516,0.985,0.686,0.335,0.577,0.549,�k,4.0,��
2022/06/14,08:00,0.551,0.810,0.515,0.986,0.686,0.337,0.578,0.549,�k��,3.7,��
2022/06/14,08:10,0.552,0.810,0.517,0.987,0.685,0.335,0.576,0.550,�k��,4.0,��
2022/06/14,08:20,0.552,0.809,0.517,0.985,0.686,0.335,0.577,0.550,�k,3.6,��
2022/06/14,08:30,0.551,0.808,0.517,0.986,0.685,0.335,0.578,0.550,�k,3.0,��
2022/06/14,08:40,0.553,0.811,0.517,0.985,0.687,0.334,0.578,0.550,�k�k��,2.9,��
2022/06/14,08:50,0.550,0.809,0.515,0.986,0.684,0.335,0.576,0.548,�k��,3.6,��
2022/06/14,09:00,0.552,0.808,0.517,0.985,0.686,0.336,0.578,0.548,�k�k��,4.8,��
2022/06/14,09:10,0.552,0.810,0.517,0.985,0.685,0.337,0.577,0.551,�k�k��,4.6,��
2022/06/14,09:20,0.551,0.809,0.517,0.985,0.686,0.336,0.578,0.549,�k�k��,4.6,��
2022/06/14,09:30,0.550,0.812,0.514,0.985,0.686,0.338,0.576,0.549,�k��,4.8,��
2022/06/14,09:40,0.552,0.812,0.515,0.988,0.684,0.336,0.577,0.550,�k��,4.7,��
2022/06/14,09:50,0.552,0.813,0.517,0.986,0.685,0.337,0.578,0.551,�k�k��,5.8,��
2022/06/14,10:00,0.553,0.813,0.514,0.989,0.687,0.336,0.576,0.548,�k�k��,5.3,��
2022/06/14,10:10,0.553,0.813,0.517,0.986,0.688,0.336,0.578,0.549,�k�k��,5.7,��
2022/06/14,10:20,0.552,0.812,0.517,0.984,0.686,0.337,0.578,0.551,�k�k��,5.6,��
2022/06/14,10:30,0.555,0.813,0.518,0.987,0.689,0.337,0.579,0.548,�k�k��,5.4,��
2022/06/14,10:40,0.554,0.814,0.516,0.986,0.687,0.337,0.578,0.551,�k�k��,5.5,��
2022/06/14,10:50,0.554,0.814,0.516,0.988,0.687,0.337,0.579,0.550,�k�k��,5.1,��
2022/06/14,11:00,0.555,0.817,0.517,0.987,0.689,0.337,0.579,0.550,�k�k��,4.9,��
2022/06/14,11:10,0.553,0.813,0.516,0.984,0.686,0.338,0.580,0.550,�k��,5.1,��
2022/06/14,11:20,0.555,0.815,0.518,0.988,0.687,0.337,0.581,0.548,�k��,5.5,��
2022/06/14,11:30,0.553,0.817,0.517,0.984,0.689,0.337,0.581,0.551,�k�k��,5.4,��
2022/06/14,11:40,0.554,0.817,0.518,0.985,0.688,0.338,0.579,0.550,�k�k��,4.6,��
2022/06/14,11:50,0.555,0.817,0.517,0.986,0.688,0.338,0.579,0.550,�k�k��,5.2,��
2022/06/14,12:00,0.555,0.817,0.516,0.985,0.689,0.336,0.579,0.552,�k�k��,4.9,��
2022/06/14,12:10,0.554,0.819,0.517,0.985,0.690,0.338,0.580,0.550,�k�k��,4.6,��
2022/06/14,12:20,0.555,0.818,0.518,0.985,0.689,0.337,0.579,0.552,�k�k��,4.3,��
2022/06/14,12:30,0.555,0.817,0.516,0.987,0.690,0.338,0.578,0.550,�k��,4.8,��
2022/06/14,12:40,0.555,0.819,0.517,0.985,0.691,0.337,0.580,0.552,�k��,4.7,��
2022/06/14,12:50,0.557,0.819,0.516,0.988,0.689,0.339,0.580,0.552,�k�k��,4.7,��
2022/06/14,13:00,0.554,0.818,0.517,0.986,0.690,0.339,0.579,0.551,�k�k��,4.9,��
2022/06/14,13:10,0.555,0.818,0.518,0.988,0.692,0.338,0.579,0.551,�k�k��,4.7,��
2022/06/14,13:20,0.554,0.818,0.520,0.987,0.690,0.338,0.580,0.550,�k�k��,4.9,��
2022/06/14,13:30,0.554,0.816,0.517,0.986,0.690,0.339,0.578,0.551,�k�k��,4.2,��
2022/06/14,13:40,0.555,0.818,0.518,0.988,0.690,0.339,0.579,0.552,�k��,4.4,��
2022/06/14,13:50,0.554,0.817,0.518,0.986,0.691,0.338,0.581,0.551,�k��,4.5,��
2022/06/14,14:00,0.553,0.821,0.518,0.987,0.691,0.339,0.581,0.552,�k��,5.1,��
2022/06/14,14:10,0.555,0.819,0.518,0.987,0.690,0.339,0.581,0.551,�k��,4.8,��
2022/06/14,14:20,0.554,0.820,0.518,0.988,0.692,0.339,0.578,0.551,�k��,4.3,��
2022/06/14,14:30,0.555,0.819,0.518,0.987,0.692,0.339,0.580,0.552,�k��,4.5,��
2022/06/14,14:40,0.553,0.817,0.517,0.985,0.692,0.338,0.579,0.550,�k��,4.4,��
2022/06/14,14:50,0.555,0.821,0.517,0.988,0.691,0.338,0.580,0.550,�k�k��,3.9,��
2022/06/14,15:00,0.555,0.820,0.518,0.985,0.689,0.337,0.579,0.552,�k��,4.1,��
2022/06/14,15:10,0.554,0.820,0.519,0.988,0.692,0.338,0.581,0.552,�k��,4.3,��
2022/06/14,15:20,0.554,0.820,0.519,0.988,0.692,0.338,0.581,0.551,�k��,4.1,��
2022/06/14,15:30,0.554,0.820,0.519,0.988,0.690,0.338,0.580,0.552,�k��,3.6,��
2022/06/14,15:40,0.555,0.822,0.519,0.991,0.692,0.340,0.579,0.552,�k��,3.8,��
2022/06/14,15:50,0.554,0.821,0.518,0.992,0.691,0.337,0.581,0.551,�k��,4.0,��
2022/06/14,16:00,0.554,0.824,0.518,0.991,0.692,0.337,0.581,0.549,�k��,3.9,��
2022/06/14,16:10,0.555,0.821,0.517,0.993,0.690,0.337,0.580,0.552,�k��,3.3,��
2022/06/14,16:20,0.555,0.823,0.518,0.991,0.692,0.337,0.583,0.550,�k��,3.7,��
2022/06/14,16:30,0.555,0.826,0.518,0.992,0.692,0.338,0.581,0.552,�k��,3.9,��
2022/06/14,16:40,0.555,0.822,0.517,0.992,0.693,0.338,0.582,0.551,�k��,3.6,��
2022/06/14,16:50,0.556,0.824,0.519,0.992,0.691,0.338,0.582,0.552,�k��,2.9,��
2022/06/14,17:00,0.554,0.822,0.517,0.992,0.692,0.337,0.582,0.551,�k��,2.6,��
2022/06/14,17:10,0.555,0.825,0.519,0.992,0.690,0.338,0.582,0.550,���k��,2.3,��
2022/06/14,17:20,0.556,0.825,0.520,0.991,0.692,0.339,0.583,0.553,�k��,2.5,��
2022/06/14,17:30,0.557,0.823,0.520,0.994,0.691,0.339,0.582,0.551,�k��,2.6,��
2022/06/14,17:40,0.557,0.826,0.520,0.992,0.693,0.339,0.581,0.553,�k�k��,2.5,��
2022/06/14,17:50,0.556,0.824,0.521,0.994,0.694,0.339,0.581,0.552,�k�k��,1.7,��
2022/06/14,18:00,0.558,0.825,0.522,0.992,0.695,0.340,0.582,0.551,�k,2.0,��
2022/06/14,18:10,0.557,0.825,0.522,0.994,0.696,0.340,0.582,0.554,�k,2.0,��
2022/06/14,18:20,0.558,0.825,0.520,0.993,0.694,0.338,0.581,0.552,�k�k��,1.7,��
2022/06/14,18:30,0.558,0.824,0.520,0.992,0.693,0.340,0.583,0.554,�k,2.3,��
2022/06/14,18:40,0.558,0.823,0.522,0.992,0.694,0.340,0.583,0.554,�k�k��,1.7,��
2022/06/14,18:50,0.558,0.824,0.522,0.992,0.694,0.341,0.584,0.554,�k�k��,1.7,��
2022/06/14,19:00,0.559,0.824,0.521,0.993,0.695,0.340,0.584,0.555,�k��,1.5,��
2022/06/14,19:10,0.557,0.825,0.521,0.991,0.695,0.339,0.584,0.553,�k��,1.4,��
2022/06/14,19:20,0.557,0.827,0.521,0.993,0.694,0.341,0.583,0.555,�k�k��,1.1,��
2022/06/14,19:30,0.559,0.825,0.522,0.992,0.696,0.339,0.584,0.554,�k,1.7,��
2022/06/14,19:40,0.559,0.826,0.522,0.991,0.693,0.341,0.585,0.554,�k��,1.4,��
2022/06/14,19:50,0.558,0.826,0.520,0.993,0.695,0.339,0.584,0.555,���k��,1.2,��
2022/06/14,20:00,0.558,0.826,0.521,0.993,0.695,0.341,0.584,0.555,�k��,1.1,��
2022/06/14,20:10,0.558,0.824,0.523,0.990,0.695,0.339,0.583,0.553,�k,0.9,��
2022/06/14,20:20,0.558,0.825,0.522,0.993,0.694,0.340,0.583,0.553,�k�k��,0.8,��
2022/06/14,20:30,0.556,0.825,0.521,0.992,0.696,0.339,0.585,0.553,�k�k��,1.1,��
2022/06/14,20:40,0.557,0.825,0.521,0.994,0.695,0.339,0.585,0.553,�k�k��,0.9,��
2022/06/14,20:50,0.557,0.825,0.521,0.993,0.695,0.340,0.584,0.553,�k��,0.9,��
2022/06/14,21:00,0.557,0.825,0.520,0.992,0.696,0.339,0.586,0.553,�k�k��,0.6,��
2022/06/14,21:10,0.557,0.824,0.521,0.993,0.697,0.341,0.586,0.553,�k��,0.9,��
2022/06/14,21:20,0.558,0.824,0.521,0.993,0.694,0.339,0.588,0.555,�k��,0.9,��
2022/06/14,21:30,0.558,0.825,0.520,0.993,0.695,0.340,0.584,0.554,�k��,1.2,��
2022/06/14,21:40,0.556,0.826,0.521,0.993,0.695,0.339,0.586,0.552,�k�k��,0.9,��
2022/06/14,21:50,0.558,0.822,0.522,0.994,0.696,0.339,0.585,0.554,�k�k��,1.4,��
2022/06/14,22:00,0.559,0.827,0.521,0.992,0.697,0.340,0.587,0.554,�k��,1.5,��
2022/06/14,22:10,0.558,0.823,0.520,0.995,0.697,0.339,0.585,0.551,�k�k��,0.9,��
2022/06/14,22:20,0.558,0.825,0.521,0.994,0.696,0.339,0.585,0.553,�k,0.6,��
2022/06/14,22:30,0.559,0.824,0.519,0.992,0.695,0.339,0.586,0.556,�k��,1.2,��
2022/06/14,22:40,0.557,0.827,0.522,0.993,0.695,0.340,0.585,0.553,�k�k��,1.2,��
2022/06/14,22:50,0.559,0.824,0.521,0.993,0.695,0.340,0.586,0.554,�k�k��,0.9,��
2022/06/14,23:00,0.557,0.825,0.519,0.993,0.697,0.339,0.586,0.553,�k,0.9,��
2022/06/14,23:10,0.558,0.824,0.523,0.991,0.696,0.338,0.585,0.552,�k�k��,1.7,��
2022/06/14,23:20,0.558,0.826,0.522,0.994,0.695,0.339,0.584,0.553,�k�k��,1.2,��
2022/06/14,23:30,0.557,0.824,0.521,0.991,0.697,0.340,0.585,0.554,�k,1.2,��
2022/06/14,23:40,0.559,0.826,0.522,0.993,0.696,0.340,0.584,0.552,�k�k��,1.2,��
2022/06/14,23:50,0.558,0.825,0.521,0.995,0.696,0.340,0.585,0.553,�k�k��,1.7,��
